Regional Weather Roundup
Issued by NWS

Home | Current Version | Previous Version | Text Only | Print | Product List | Glossary Off
Versions: 1 2 3 4 5 6 7 8 9 10 11 12 13 14 15 16 17 18 19 20 21 22 23 24 25 26 27 28 29 30 31 32 33 34 35 36 37 38 39 40 41 42 43 44 45 46 47 48 49 50

000
ASUS43 KLSX 250707
RWRMO

WEATHER SUMMARY FOR MISSOURI
NATIONAL WEATHER SERVICE SPRINGFIELD MO
200 AM CDT SUN JUN 25 2017

NOTE: "FAIR" INDICATES FEW OR NO CLOUDS BELOW 12,000 FEET WITH NO
       SIGNIFICANT WEATHER AND/OR OBSTRUCTIONS TO VISIBILITY.
       CURRENT SKY AND/OR WEATHER CONDITIONS ARE NOT AVAILABLE FOR
       CHILLICOTHE AND FARMINGTON.

MOZ001>031-035>038-043-044-053-054-250800-
...NORTHERN AND WESTERN MISSOURI...

CITY           SKY/WX    TMP DP  RH WIND       PRES   REMARKS
KANSAS CTY INT MOCLDY    62  51  67 SW8       30.21R
KANSAS C DTWN  CLOUDY    70  49  47 SW8       30.20S
LEE`S SUMMIT   CLOUDY    67  51  56 SW8       30.22R
ST JOSEPH      CLEAR     60  48  64 NW3       30.20R
CHILLICOTHE      N/A     58  51  78 CALM      30.18R
KIRKSVILLE     CLEAR     57  48  72 NW5       30.17R

$$
MOZ066>068-077>081-088>096-101>105-250800-
...SOUTHWEST MISSOURI...

CITY           SKY/WX    TMP DP  RH WIND       PRES   REMARKS
SPRINGFIELD    CLOUDY    61  54  77 CALM      30.24S
JOPLIN         CLOUDY    65  58  78 CALM      30.25R
BRANSON        CLOUDY    59  52  77 CALM      30.26S

$$
MOZ032>034-039>042-045>050-055>058-069>072-250800-
...CENTRAL MISSOURI...

CITY           SKY/WX    TMP DP  RH WIND       PRES   REMARKS
COLUMBIA       PTCLDY    60  50  69 SW8       30.19S
JEFFERSON CITY CLEAR     60  51  72 CALM      30.19S
ROLLA          PTCLDY    54  48  80 S8        30.20S
SEDALIA        CLEAR     60  53  77 SW8       30.21S
WHITEMAN AFB   PTCLDY    62  50  65 SW8       30.20R
WARRENSBURG    CLEAR     61  50  67 S5        30.21R
OSAGE BEACH    CLEAR     55  53  93 CALM      30.22S

$$
MOZ051-052-059>065-250800-
...EAST CENTRAL MISSOURI...

CITY           SKY/WX    TMP DP  RH WIND       PRES   REMARKS
ST LOUIS INTL  PTCLDY    66  46  48 SW7       30.16F
SPIRIT OF STL  CLEAR     56  53  90 CALM      30.16S
ST CHARLES     PTCLDY    60  53  77 CALM      30.15F

$$
MOZ072>076-082>087-097>100-106>115-250800-
...SOUTH CENTRAL AND SOUTHEAST MISSOURI...

CITY           SKY/WX    TMP DP  RH WIND       PRES   REMARKS
CAPE GIRARDEAU PTCLDY    59  55  87 CALM      30.18F
FARMINGTON     PTCLDY    54  51  90 CALM      30.21S
POPLAR BLUFF   CLEAR     62  59  90 N5        30.20R
WEST PLAINS    CLEAR     58  52  80 CALM      30.25R

$$



USA.gov is the U.S. government's official web portal to all federal, state and local government web resources and services.